This is the latest recevied weather packets stored in our database for station/object WX4LTG. If no packets are shown the sender has not sent any weather packets the latest 10 day(s).
| Time | Temp. | Humidity | Pressure | Rain* | Wind** | Luminosity | Snow |
|---|---|---|---|---|---|---|---|
| 1777659582 | 26.67° C | 30% | 1012.3 hPa | 0 mm | - | 703 W/m² | - |
| 1777659278 | 26.67° C | 29% | 1012.3 hPa | 0 mm | - | 697 W/m² | - |
| 1777658976 | 27.22° C | 29% | 1012.4 hPa | 0 mm | - | 692 W/m² | - |
| 1777658673 | 26.67° C | 30% | 1012.4 hPa | 0 mm | - | 684 W/m² | - |
| 1777658369 | 26.11° C | 30% | 1012.5 hPa | 0 mm | - | 678 W/m² | - |
| 1777658067 | 26.11° C | 31% | 1012.5 hPa | 0 mm | - | 670 W/m² | - |
| 1777657763 | 26.11° C | 31% | 1012.8 hPa | 0 mm | - | 661 W/m² | - |
| 1777657461 | 26.11° C | 31% | 1012.8 hPa | 0 mm | - | 653 W/m² | - |
| 1777657158 | 26.11° C | 31% | 1012.9 hPa | 0 mm | - | 644 W/m² | - |
| 1777656856 | 25.56° C | 32% | 1012.8 hPa | 0 mm | - | 636 W/m² | - |
| 1777656551 | 25.56° C | 33% | 1012.7 hPa | 0 mm | - | 627 W/m² | - |
| 1777656246 | 26.11° C | 32% | 1012.7 hPa | 0 mm | - | 618 W/m² | - |
| 1777655942 | 25.56° C | 32% | 1012.9 hPa | 0 mm | - | 608 W/m² | - |
| 1777655639 | 25.56° C | 32% | 1012.8 hPa | 0 mm | - | 593 W/m² | - |
| 1777655335 | 25.56° C | 33% | 1012.8 hPa | 0 mm | - | 586 W/m² | - |
| 1777655032 | 25.56° C | 33% | 1012.9 hPa | 0 mm | - | 576 W/m² | - |
| 1777654730 | 25.56° C | 33% | 1012.9 hPa | 0 mm | - | 564 W/m² | - |
| 1777654428 | 25° C | 34% | 1012.8 hPa | 0 mm | - | 550 W/m² | - |
| 1777654125 | 25° C | 35% | 1012.6 hPa | 0 mm | - | 539 W/m² | - |
| 1777653823 | 25° C | 34% | 1012.8 hPa | 0 mm | - | 528 W/m² | - |
| 1777653518 | 25° C | 34% | 1012.9 hPa | 0 mm | - | 515 W/m² | - |
| 1777653215 | 25° C | 35% | 1012.9 hPa | 0 mm | - | 503 W/m² | - |
| 1777652912 | 25° C | 34% | 1013.1 hPa | 0 mm | - | 490 W/m² | - |
| 1777652609 | 24.44° C | 36% | 1012.9 hPa | 0 mm | - | 478 W/m² | - |
| 1777652306 | 24.44° C | 35% | 1012.8 hPa | 0 mm | - | 465 W/m² | - |
* Rain latest hour (hover to see other rain measurements)
** Current wind speed in m/s (hover to see current wind gust speed)